Location: *
(57.8420°S, 159.8600°W)
Time: 03:26:30
(UTC+00:00)

Cosmos 2322 - Pass Details

Date: 18 May 2021
Orbit: 841 x 854 km, 71.0° (Epoch: 23 June)

Event Time Altitude Azimuth Distance (km) Brightness Sun altitude
Rises 03:49:27 0° 329° (NNW) 3,429 7.8 -10.5°
Reaches altitude 10° 03:51:53 10° 329° (NNW) 2,500 7.0 -10.8°
Maximum altitude 03:57:39 84° 55° (NE) 880 3.8 -11.6°
Enters shadow 04:03:27 10° 142° (SE) 2,511 5.7 -12.3°
